Find Starlink 3297

NORAD ID: 50159 Int'l Des: 2021-125 Owner: SPXS Country: US Constellation: starlink operational
LEOCIRCULAR

現在のビュー

3D地球を読み込み中...

About Starlink 3297

Starlink 3297 (NORAD 50159) is a starlink constellation satellite (v1.5) launched Dec 18, 2021 by SPXS of US. It operates in LEO, CIRCULAR orbit with a mass of 290.00 kg.

次回通過

Passes for default location (London). Set your location on the main map for personalized predictions.

高度履歴

Loading altitude history...

軌道要素

1 50159U 21125D 26258.62061774 .00000219 00000-0 17979-4 0 9996
2 50159 53.1591 114.8058 0001264 81.8537 278.2608 15.33554007265287
Epoch: Sep 15, 2026 • Age: 7 hours

現在のステータス

高度 479.9 km
遠地点 / 近地点 N/A
速度 7.62 km/s
衛星直下点 -41.74°S, 7.52°E
打ち上げ日 Dec 18, 2021
運用期間 4.7 years
タイプ internet

技術仕様

分類 Payload
質量 290.00 kg
乾燥質量 270.00 kg
長さ 0.20 m
スパン 9.00 m
形状 ? Box + pan
製造者 SPXS
バスタイプ Starlink
フェーズステータス In Orbit
所有者/国 SPXS/US

Most Searched